[[{"header":{"parameterUnit":"m.s-1","parameterCategory":1,"la1":30.2991,"la2":30.254,"lo1":-89.0895,"lo2":-89.0444,"dy":0.0017,"dx":0.0017,"nx":28,"ny":28,"refTime":"2024-07-06T21:00:00:Z","depth":0,"parameterNumber":2,"parameterNumberName":"U-component_of_WINDS"},"data":[0,0,0,0,0,0,0,0,0,0,0,0,0,0,0,0,0,0,0,0,0,0,0,0,0,0,0,0,0,0,0,0,0,0,0,0,0,0,0,0,0,0,0,0,0,0,0,0,0,0,0,0,0,0,0,0,0,0,1.7278,1.7279,0,1.7445,1.7447,1.7449,1.7502,1.7501,1.75,1.7499,1.7674,1.7679,1.7685,0,0,0,0,0,0,0,0,0,0,0,0,0,1.7006,1.7011,1.7277,1.728,1.7282,1.7444,1.7447,1.7449,1.7502,1.7501,1.75,1.7499,1.7672,1.7679,1.7685,0,0,0,0,0,0,0,0,0,0,0,0,0,1.7144,1.7013,1.7277,1.7328,1.7334,1.7444,1.7447,1.745,1.7502,1.7501,1.75,1.7499,1.767,1.7678,1.7686,1.7759,0,0,1.7711,1.7714,0,0,0,0,0,0,0,0,1.7136,1.7154,1.7318,1.7324,1.7331,1.7451,1.7415,1.7554,1.7502,1.7438,1.7499,1.7498,1.7601,1.7615,1.7649,1.7768,1.7775,1.7711,1.7716,1.772,1.7722,0,0,0,0,0,0,0,1.7127,1.7147,1.7344,1.732,1.7329,1.7343,1.7361,1.7442,1.7524,1.7444,1.7448,1.7467,1.7605,1.7641,1.7653,1.7778,1.7711,1.7718,1.7723,1.7727,1.7964,1.7966,0,0,0,0,0,0,1.7108,1.7139,1.7338,1.7349,1.7229,1.7348,1.7369,1.7414,1.7524,1.7539,1.7468,1.7469,1.7628,1.7644,1.766,1.7752,1.772,1.7727,1.7732,1.7963,1.7965,1.7966,0,0,0,0,0,0,1.7102,1.7125,1.7332,1.7245,1.7272,1.7354,1.7405,1.7418,1.7454,1.7542,1.7557,1.7489,1.7627,1.7648,1.7734,1.7759,1.7731,1.7738,1.7961,1.7964,1.7966,1.7938,0,0,0,0,0,0,1.7094,1.7123,1.7151,1.7245,1.7277,1.7402,1.7406,1.7422,1.7468,1.7471,1.7566,1.7581,1.7628,1.7721,1.7742,1.777,1.7745,1.7959,1.7962,1.7965,1.7937,1.7939,1.7941,0,0,0,0,0,1.7084,1.7137,1.7152,1.7176,1.7313,1.7403,1.7422,1.7474,1.7469,1.7499,1.7555,1.7578,1.7753,1.773,1.7753,1.7784,1.7958,1.7961,1.7965,1.7936,1.7939,1.7941,0,0,0,0,0,0,1.7046,1.7151,1.7168,1.7253,1.7319,1.7412,1.7451,1.7475,1.7544,1.7544,1.7607,1.7628,1.7709,1.7755,1.7727,1.786,1.7857,1.7865,1.7827,1.783,1.7832,1.7819,1.7751,0,0,0,0,0,1.7047,1.711,1.7199,1.7266,1.7297,1.7368,1.7409,1.7444,1.7515,1.7543,1.7606,1.7674,1.7745,1.779,1.786,1.7944,1.7966,1.7977,1.7978,1.7979,1.7986,1.8033,1.8039,1.7977,1.7977,1.7977,0,0,1.705,1.7115,1.7152,1.7259,1.7314,1.7379,1.7391,1.746,1.7509,1.7554,1.7638,1.7686,1.7767,1.7852,1.7892,1.7893,1.8008,1.7984,1.7984,1.799,1.8037,1.8043,1.8048,1.798,1.7979,1.7979,0,0,1.709,1.7145,1.7207,1.7261,1.7343,1.739,1.7404,1.7494,1.7527,1.7612,1.7647,1.7707,1.7827,1.7883,1.7927,1.7987,1.8011,1.8008,1.8017,1.8063,1.8068,1.8072,1.8093,1.81,1.8014,1.8014,1.8014,0,1.7084,1.7182,1.7235,1.7302,1.7348,1.739,1.7453,1.7504,1.7605,1.7636,1.7635,1.7786,1.7844,1.7942,1.7956,1.7991,1.8009,1.7997,1.8063,1.8068,1.8073,1.8094,1.8101,1.8013,1.8013,1.8013,1.8013,0,1.7171,1.7238,1.7278,1.7373,1.7424,1.7488,1.7552,1.7597,1.7627,1.7673,1.7759,1.783,1.7914,1.794,1.7971,1.8043,1.804,1.805,1.8048,1.8077,1.8097,1.8106,1.8012,1.8012,1.8012,1.8012,0,0,1.7191,1.7314,1.7327,1.7371,1.7464,1.7518,1.7584,1.7665,1.7703,1.7771,1.7828,1.7928,1.7938,1.7988,1.8025,1.8065,1.8107,1.807,1.8073,1.8074,1.819,1.8182,1.819,1.8123,1.8125,1.8126,1.8183,0,1.7242,1.7361,1.741,1.7506,1.7569,1.761,1.7668,1.7732,1.7777,1.7838,1.7889,1.7958,1.7966,1.7996,1.8037,1.8093,1.8131,1.8089,1.8177,1.818,1.8155,1.8201,1.8193,1.8243,1.8192,1.8193,1.8194,0,1.7318,1.7385,1.7486,1.7572,1.76,1.7651,1.7729,1.7786,1.786,1.789,1.7945,1.798,1.8051,1.8043,1.8143,1.8114,1.8153,1.8185,1.8189,1.8199,1.8189,1.8212,1.8261,1.8268,1.8207,1.8206,1.8205,0,1.7321,1.7438,1.7513,1.7549,1.7651,1.7685,1.7729,1.7801,1.7847,1.7915,1.7945,1.8022,1.8064,1.8122,1.8177,1.8166,1.8271,1.8268,1.8299,1.8297,1.8319,1.8317,1.8374,1.8344,1.8344,1.8344,1.8344,0,1.7373,1.7434,1.7516,1.7563,1.7632,1.7689,1.7756,1.7803,1.7866,1.7923,1.7964,1.8017,1.8086,1.8147,1.8191,1.8266,1.8285,1.8312,1.8323,1.8308,1.8305,1.8335,1.8332,1.8346,1.8346,1.8345,1.8345,0,1.7389,1.7447,1.7532,1.762,1.7644,1.7691,1.7767,1.7814,1.7861,1.7933,1.7953,1.8027,1.8101,1.8161,1.826,1.8289,1.8368,1.838,1.8342,1.8348,1.8375,1.8371,1.8453,1.8467,1.8427,1.8428,1.8428,0,1.7418,1.7466,1.7559,1.7599,1.7642,1.7707,1.7753,1.7811,1.7857,1.7944,1.798,1.8058,1.8122,1.824,1.8303,1.8378,1.8392,1.8416,1.8404,1.8388,1.8392,1.8389,1.8394,1.8417,1.8417,1.8417,1.8417,0,1.7464,1.749,1.7554,1.7628,1.7682,1.7743,1.7806,1.7837,1.7906,1.7956,1.8032,1.8082,1.8181,1.8257,1.8339,1.8385,1.8413,1.842,1.8431,1.8417,1.8393,1.8406,1.8345,1.8418,1.8418,1.8418,1.8418,1.8418,1.7487,1.7531,1.7603,1.7673,1.7726,1.7783,1.7831,1.7884,1.7948,1.8032,1.8062,1.814,1.8212,1.8324,1.8371,1.8433,1.8436,1.8452,1.8456,1.8459,1.8457,1.8383,1.8449,1.8449,1.8449,1.8449,1.8449,0,1.7534,1.7582,1.7646,1.7732,1.7787,1.7807,1.7877,1.7922,1.799,1.8054,1.8116,1.8203,1.8277,1.8345,1.8423,1.846,1.8474,1.8478,1.8476,1.8486,1.845,1.8433,1.8465,1.8465,1.8465,1.8465,1.8465,1.8465,1.7565,1.764,1.7674,1.7776,1.7824,1.7899,1.7938,1.7991,1.8042,1.8137,1.8198,1.8242,1.8308,1.839,1.8459,1.8477,1.8504,1.8504,1.8525,1.8491,1.8489,1.8486,1.847,1.8509,1.8509,1.8556,1.8556,1.8557]},{"header":{"parameterUnit":"m.s-1","parameterCategory":1,"la1":30.2991,"la2":30.254,"lo1":-89.0895,"lo2":-89.0444,"dy":0.0017,"dx":0.0017,"nx":28,"ny":28,"refTime":"2024-07-06T21:00:00:Z","depth":0,"parameterNumber":3,"parameterNumberName":"V-component_of_WINDS"},"data":[0,0,0,0,0,0,0,0,0,0,0,0,0,0,0,0,0,0,0,0,0,0,0,0,0,0,0,0,0,0,0,0,0,0,0,0,0,0,0,0,0,0,0,0,0,0,0,0,0,0,0,0,0,0,0,0,0,0,4.6252,4.6251,0,4.6246,4.6246,4.6246,4.6243,4.6243,4.6243,4.6243,4.6234,4.6234,4.6234,0,0,0,0,0,0,0,0,0,0,0,0,0,4.6256,4.6256,4.6252,4.6251,4.6251,4.6246,4.6246,4.6246,4.6243,4.6243,4.6243,4.6243,4.6234,4.6234,4.6234,0,0,0,0,0,0,0,0,0,0,0,0,0,4.6253,4.6256,4.6252,4.6249,4.6249,4.6246,4.6246,4.6246,4.6243,4.6243,4.6243,4.6243,4.6234,4.6234,4.6234,4.6232,0,0,4.6233,4.6233,0,0,0,0,0,0,0,0,4.6253,4.6253,4.625,4.6249,4.6249,4.6245,4.6245,4.6241,4.6243,4.6245,4.6243,4.6243,4.6238,4.6237,4.6236,4.6232,4.6231,4.6233,4.6233,4.6232,4.6232,0,0,0,0,0,0,0,4.6253,4.6253,4.6249,4.625,4.6249,4.6248,4.6247,4.6244,4.6241,4.6245,4.6245,4.6244,4.6238,4.6236,4.6236,4.6231,4.6233,4.6232,4.6232,4.6232,4.6227,4.6227,0,0,0,0,0,0,4.6254,4.6253,4.625,4.6249,4.6251,4.6248,4.6247,4.6246,4.6242,4.6241,4.6244,4.6244,4.6237,4.6236,4.6236,4.6234,4.6232,4.6232,4.6232,4.6227,4.6227,4.6227,0,0,0,0,0,0,4.6254,4.6254,4.625,4.6251,4.6251,4.6248,4.6247,4.6246,4.6245,4.6241,4.624,4.6244,4.6237,4.6236,4.6234,4.6234,4.6232,4.6232,4.6227,4.6227,4.6227,4.6231,0,0,0,0,0,0,4.6254,4.6254,4.6254,4.6251,4.625,4.6249,4.6247,4.6246,4.6245,4.6245,4.624,4.624,4.6237,4.6234,4.6233,4.6233,4.6231,4.6226,4.6227,4.6227,4.6231,4.6231,4.6231,0,0,0,0,0,4.6255,4.6254,4.6254,4.6253,4.625,4.6249,4.6248,4.6246,4.6245,4.6245,4.6242,4.624,4.6234,4.6234,4.6233,4.6233,4.6226,4.6227,4.6227,4.623,4.6231,4.6231,0,0,0,0,0,0,4.6255,4.6254,4.6253,4.6252,4.6251,4.6248,4.6247,4.6246,4.6244,4.6244,4.624,4.6239,4.6237,4.6235,4.6234,4.6232,4.623,4.623,4.6233,4.6234,4.6234,4.6234,4.6231,0,0,0,0,0,4.6256,4.6255,4.6253,4.6253,4.6252,4.625,4.6249,4.6248,4.6246,4.6244,4.6242,4.6239,4.6237,4.6235,4.6233,4.6231,4.623,4.623,4.623,4.6231,4.623,4.623,4.623,4.6227,4.6227,4.6227,0,0,4.6255,4.6255,4.6254,4.6253,4.6251,4.6251,4.6249,4.6248,4.6247,4.6244,4.6242,4.624,4.6237,4.6235,4.6234,4.6233,4.6231,4.6231,4.6231,4.6231,4.623,4.623,4.6231,4.6227,4.6227,4.6227,0,0,4.6255,4.6255,4.6254,4.6253,4.6252,4.6251,4.6251,4.6249,4.6248,4.6246,4.6244,4.6243,4.6239,4.6237,4.6235,4.6236,4.6234,4.6235,4.6237,4.6236,4.6236,4.6237,4.6237,4.6237,4.6235,4.6235,4.6235,0,4.6255,4.6254,4.6254,4.6253,4.6253,4.6252,4.6251,4.625,4.6247,4.6247,4.6246,4.6242,4.6239,4.6237,4.6238,4.6237,4.6236,4.6235,4.6237,4.6237,4.6237,4.6237,4.6238,4.6235,4.6235,4.6235,4.6235,0,4.6254,4.6254,4.6254,4.6253,4.6253,4.6252,4.6251,4.625,4.625,4.6248,4.6247,4.6244,4.6242,4.6241,4.624,4.6239,4.6239,4.6238,4.6236,4.6238,4.6238,4.6238,4.6236,4.6236,4.6235,4.6235,0,0,4.6253,4.6253,4.6253,4.6253,4.6253,4.6252,4.6252,4.6251,4.625,4.6249,4.6248,4.6246,4.6245,4.6243,4.6242,4.6241,4.6243,4.624,4.624,4.6241,4.6242,4.6243,4.6244,4.6242,4.6242,4.6242,4.6243,0,4.6252,4.6253,4.6253,4.6252,4.6252,4.6252,4.6252,4.6251,4.625,4.6249,4.6248,4.6247,4.6246,4.6245,4.6244,4.6243,4.6243,4.6243,4.624,4.624,4.6241,4.6244,4.6244,4.6245,4.6243,4.6243,4.6243,0,4.6251,4.6252,4.6252,4.6253,4.6252,4.6252,4.6252,4.6251,4.6251,4.625,4.6249,4.6248,4.6247,4.6246,4.6245,4.6245,4.6244,4.6243,4.6243,4.6243,4.6241,4.6243,4.6246,4.6246,4.6243,4.6243,4.6243,0,4.6251,4.6251,4.6252,4.6252,4.6252,4.6252,4.6252,4.6252,4.6251,4.6251,4.6251,4.6249,4.6249,4.6248,4.6246,4.6246,4.6245,4.6244,4.6244,4.6245,4.6244,4.6244,4.6246,4.6244,4.6244,4.6244,4.6244,0,4.625,4.625,4.6251,4.6252,4.6252,4.6252,4.6252,4.6252,4.6252,4.6252,4.6251,4.6251,4.6249,4.6248,4.6247,4.6247,4.6246,4.6245,4.6245,4.6245,4.6245,4.6244,4.6244,4.6244,4.6244,4.6244,4.6244,0,4.6249,4.625,4.625,4.6251,4.6252,4.6252,4.6252,4.6252,4.6252,4.6252,4.6252,4.6252,4.6251,4.625,4.6248,4.6248,4.6247,4.6247,4.6248,4.6248,4.6248,4.6248,4.625,4.625,4.6248,4.6248,4.6248,0,4.6248,4.6248,4.625,4.6251,4.6251,4.6252,4.6252,4.6252,4.6253,4.6253,4.6253,4.6253,4.6252,4.6251,4.625,4.625,4.6249,4.625,4.6249,4.6249,4.6249,4.6249,4.6249,4.625,4.625,4.625,4.625,0,4.6247,4.6248,4.6248,4.625,4.6251,4.6252,4.6252,4.6252,4.6253,4.6253,4.6253,4.6254,4.6253,4.6253,4.6252,4.6252,4.6251,4.625,4.625,4.625,4.6251,4.6251,4.6248,4.625,4.625,4.625,4.625,4.625,4.6246,4.6246,4.6248,4.6249,4.625,4.6251,4.6252,4.6253,4.6253,4.6254,4.6254,4.6254,4.6254,4.6254,4.6253,4.6253,4.6253,4.6253,4.6253,4.6253,4.6253,4.6252,4.6253,4.6253,4.6253,4.6253,4.6253,0,4.6244,4.6246,4.6247,4.6249,4.625,4.6251,4.6252,4.6253,4.6254,4.6254,4.6255,4.6255,4.6255,4.6255,4.6255,4.6255,4.6255,4.6255,4.6255,4.6255,4.6253,4.6253,4.6256,4.6256,4.6256,4.6256,4.6256,4.6256,4.6244,4.6245,4.6247,4.6249,4.625,4.6251,4.6252,4.6253,4.6254,4.6255,4.6256,4.6256,4.6256,4.6257,4.6257,4.6257,4.6257,4.6257,4.6257,4.6255,4.6255,4.6255,4.6255,4.6257,4.6257,4.6258,4.6258,4.6258]}]]